User: anonymous   Login
Location: Alfortville
(48.8058°N, 2.4204°E)
Time: 17:45:25
(UTC+00:00)
Language:

Cosmos 1544 Rocket - Orbit

View from above orbital plane
View from above orbital plane
View from above satellite
View from above satellite

Ground track
Ground track

The orbit data is extracted from the following two-line orbital elements,

1 14820U 84027B   22024.90723576  .00000143  00000-0  14440-4 0  9990
2 14820  82.5411 213.2985 0017193 267.8711  92.0535 14.83747152 24351
Epoch (UTC): 24 January 2022 21:46:25
Eccentricity: 0.0017193
inclination: 82.5411°
perigee height: 605 km
apogee height: 629 km
right ascension of ascending node: 213.2985°
argument of perigee: 267.8711°
revolutions per day: 14.83747152
mean anomaly at epoch: 92.0535°
orbit number at epoch: 2435

The dashed part of the orbit path shows where the satellite is in the earth's shadow,  

DLR